CAPE
4 4 5 6 6 5 5 3 3 3 5 5 5 5 3 3 3 3 3 2 2 2 2 2 2 1 1 1 2 2 3 3 5 5 6 8 11 11 13 10 10 4 5 6 6 8 13 24 24 29 35 40 44 44 47 50 50 54 62 68 68 82 92 95 95 95 88 81 75 75 67 58 45 45 36 33 28 28 29 28 28 27 27 27 27 30
4 5 6 6 6 4 4 4 3 3 4 4 3 3 2 2 2 2 2 2 2 1 1 2 2 1 0 1 1 1 1 1 2 2 3 5 9 9 11 10 10 8 7 8 8 12 23 30 30 30 33 31 34 34 31 32 32 32 36 47 47 62 74 75 75 76 73 67 60 60 54 47 35 35 27 26 25 25 23 26 26 25 28 26 26 29
3 4 6 6 6 5 4 5 4 4 3 3 4 4 2 1 2 2 2 1 1 0 0 2 2 1 0 0 0 0 0 1 2 2 4 6 8 8 10 11 11 9 10 12 12 19 28 29 29 30 28 28 22 22 15 13 13 13 14 24 24 35 47 54 54 52 52 50 45 45 39 32 24 24 23 24 26 26 27 28 28 25 25 27 27 28
2 3 4 5 5 7 5 4 5 5 4 4 4 4 3 2 2 2 2 1 1 nan 0 0 0 0 1 nan nan nan 0 1 3 3 6 9 10 10 13 13 13 14 14 18 18 25 30 30 30 27 23 17 12 12 8 5 5 6 9 14 14 24 31 32 32 38 34 35 29 29 28 25 23 23 24 24 29 29 31 29 29 26 28 28 28 32
2 4 5 5 5 5 5 6 5 5 5 5 4 4 4 4 3 3 4 3 3 1 1 1 1 1 1 1 1 1 1 3 6 6 9 11 15 15 16 18 18 20 21 24 24 28 28 23 23 21 17 13 9 9 9 9 9 8 12 15 15 24 25 29 29 30 29 30 29 29 27 26 27 27 29 28 28 28 31 30 30 31 34 37 37 40
2 4 6 5 5 3 4 6 5 5 3 4 4 4 4 4 6 6 7 7 7 5 4 3 3 3 2 1 0 0 2 6 9 9 12 14 17 17 19 19 19 23 23 20 20 23 18 14 14 12 11 10 12 12 13 12 12 14 20 23 23 26 29 27 27 28 25 26 26 26 29 27 27 27 26 23 23 23 25 28 28 33 39 41 41 46
2 4 4 2 2 3 4 5 4 4 4 4 3 3 3 3 4 4 4 7 7 6 6 5 5 3 1 1 1 1 3 5 7 7 7 10 16 16 15 16 16 18 14 13 13 11 9 7 7 7 7 7 8 8 12 15 15 20 24 24 24 23 23 21 21 19 20 21 20 20 22 19 19 19 17 15 15 15 17 22 22 27 33 41 41 47
2 3 2 2 2 2 3 3 3 3 3 2 2 2 1 2 3 3 2 2 2 2 2 0 0 nan nan nan nan nan nan nan nan nan nan nan nan nan nan nan nan nan nan nan nan nan nan nan nan nan nan nan 0 0 1 2 2 3 5 7 7 6 8 10 10 12 13 13 13 13 12 12 13 13 12 12 14 14 17 23 23 29 32 36 36 42
3 3 3 1 1 3 2 2 2 2 2 3 2 2 0 nan 0 0 nan nan nan nan nan nan nan nan nan nan nan nan nan nan nan nan nan nan nan nan nan nan nan nan nan nan nan nan nan nan nan nan nan nan nan nan nan nan nan nan nan nan nan 1 3 7 7 9 10 13 13 13 12 12 12 12 13 13 15 15 18 21 21 28 30 35 35 43
5 4 3 2 2 2 1 2 2 2 3 3 3 3 1 nan nan nan nan nan nan nan nan nan nan nan nan nan nan nan nan nan nan nan nan nan nan nan nan nan nan nan nan nan nan nan nan nan nan nan nan nan nan nan nan nan nan nan nan nan nan nan 1 4 4 7 10 11 13 13 13 13 13 13 12 13 14 14 18 18 18 21 25 32 32 41
2 4 3 0 0 1 1 1 0 0 1 1 1 1 1 nan nan nan nan nan nan nan nan nan nan nan nan nan nan nan nan nan nan nan nan nan nan nan nan nan nan nan nan nan nan nan nan nan nan nan nan nan nan nan nan nan nan nan nan nan nan nan nan 1 1 5 8 10 13 13 13 13 13 13 13 14 14 14 15 14 14 17 20 28 28 37
nan 0 0 nan nan nan nan nan nan nan nan nan nan nan nan nan nan nan nan nan nan nan nan nan nan nan nan nan nan nan nan nan nan nan nan nan nan nan nan nan nan nan nan nan nan nan nan nan nan nan nan nan nan nan nan nan nan nan nan nan nan nan nan 0 0 2 4 8 10 10 11 12 12 12 11 10 12 12 13 13 13 15 18 25 25 31
nan nan nan nan nan nan nan nan nan nan nan nan nan nan nan nan nan nan nan nan nan nan nan nan nan nan nan nan nan nan nan nan nan nan nan nan nan nan nan nan nan nan nan nan nan nan nan nan nan nan nan nan nan nan nan nan nan nan nan nan nan nan nan nan nan 0 3 4 6 6 8 7 9 9 9 9 12 12 13 15 15 17 17 23 23 28
nan nan nan nan nan nan nan nan nan nan nan nan nan nan nan nan nan nan nan nan nan nan nan nan nan nan nan nan nan nan nan nan nan nan nan nan nan nan nan nan nan nan nan nan nan nan nan nan nan nan nan nan nan nan nan nan nan nan nan nan nan nan nan 0 0 1 2 4 5 5 6 7 8 8 8 10 13 13 16 20 20 21 24 28 28 30
nan nan nan nan nan nan nan nan nan nan nan nan nan nan nan nan nan nan nan nan nan nan nan nan nan nan nan nan nan nan nan nan nan nan nan nan nan nan nan nan nan nan nan nan nan nan nan nan nan nan nan nan nan nan nan nan nan nan nan nan nan 0 1 3 3 3 5 6 7 7 9 10 10 10 13 15 19 19 22 23 23 24 27 28 28 30
nan nan nan nan nan nan nan nan nan nan nan nan nan nan nan nan nan nan nan nan nan nan nan nan nan nan nan nan nan nan nan nan nan nan nan nan nan nan nan nan nan nan nan nan nan nan nan nan nan nan nan nan nan nan nan nan nan 0 1 4 4 5 7 8 8 10 11 13 13 13 14 15 15 15 17 21 25 25 27 27 27 29 30 29 29 29
nan nan nan nan nan nan nan nan nan nan nan nan nan nan nan nan nan nan nan nan nan nan nan nan nan nan nan nan nan nan nan nan nan nan nan nan nan nan nan nan nan nan nan nan nan nan nan nan nan nan nan nan nan nan 0 3 3 5 7 9 9 10 12 14 14 13 14 15 17 17 19 21 20 20 24 24 27 27 29 29 29 29 27 27 27 26
nan nan nan nan nan nan nan nan nan nan nan nan nan nan nan nan nan nan nan nan nan nan nan nan nan nan nan nan nan nan nan nan nan nan nan nan nan nan nan nan nan nan nan nan nan nan nan nan nan nan nan nan 0 0 2 4 4 7 8 9 9 12 12 13 13 15 17 18 17 17 19 21 23 23 27 26 26 26 28 29 29 27 25 22 22 22
nan nan nan nan nan nan nan nan nan nan nan nan nan nan nan nan nan nan nan nan nan nan nan nan nan nan nan nan nan nan nan nan nan nan nan nan nan nan nan nan nan nan nan nan nan nan nan nan nan nan nan nan nan nan 1 2 2 6 7 8 8 10 10 12 12 13 16 17 19 19 18 21 22 22 24 24 25 25 25 25 25 25 23 21 21 19
nan nan nan nan nan nan nan nan nan nan nan nan nan nan nan nan nan nan nan nan nan nan nan nan nan nan nan nan nan nan nan nan nan nan nan nan nan nan nan nan nan nan nan nan nan nan nan nan nan nan nan nan nan nan nan 1 1 4 6 8 8 8 9 11 11 12 14 15 18 18 19 19 21 21 22 23 25 25 24 24 24 22 20 19 19 19
nan nan nan nan nan nan nan nan nan nan nan nan nan nan nan nan nan nan nan nan nan nan nan nan nan nan nan nan nan nan nan nan nan nan nan nan nan nan nan nan nan nan nan nan nan nan nan nan nan nan nan nan nan nan 0 0 0 2 3 5 5 6 7 9 9 11 13 15 17 17 19 19 21 21 22 21 23 23 23 24 24 22 21 19 19 19
nan nan nan nan nan nan nan nan nan nan nan nan nan nan nan nan nan nan nan nan nan nan nan 0 0 nan nan nan nan nan nan nan nan nan 0 nan nan nan nan nan nan nan nan nan nan nan nan nan nan nan nan nan nan nan 0 1 1 1 2 3 3 4 5 7 7 10 12 14 17 17 20 19 20 20 20 20 23 23 24 23 23 21 22 21 21 21
nan nan nan nan nan nan nan nan nan nan nan nan nan nan nan nan 1 1 nan nan nan nan 1 nan nan nan nan nan nan nan nan nan nan nan nan nan nan nan nan nan nan nan nan nan nan nan nan nan nan nan nan nan nan nan 0 1 1 1 2 2 2 3 4 6 6 9 12 14 16 16 18 20 22 22 22 24 23 23 23 22 22 22 22 22 22 20
nan nan nan nan nan nan nan nan nan nan nan nan nan nan nan nan nan nan nan nan nan nan nan nan nan nan nan nan nan nan nan nan nan nan nan 0 nan nan nan nan nan nan nan nan nan nan nan nan nan nan nan nan nan nan 1 2 2 3 3 3 3 4 6 8 8 10 15 16 20 20 20 21 21 21 22 22 22 22 20 20 20 20 19 19 19 19
nan nan nan nan nan nan nan nan nan nan nan nan nan nan nan nan nan nan nan nan nan nan nan nan nan 2 0 0 0 0 nan nan nan nan nan nan nan nan nan nan nan nan nan nan nan nan nan nan nan nan nan nan nan nan 1 3 3 4 6 6 6 7 9 9 9 11 13 12 16 16 16 17 17 17 17 18 17 17 19 18 18 17 17 16 16 16
nan 0 nan nan nan 0 2 9 13 13 1 4 0 0 nan nan nan nan nan nan nan nan nan 4 4 1 nan nan nan nan nan nan nan nan nan nan nan nan nan nan nan nan nan nan nan nan nan nan nan nan nan nan nan nan nan 1 1 4 6 6 6 7 8 7 7 7 8 10 10 10 12 12 13 13 14 13 15 15 14 16 16 15 14 13 13 15
7 5 7 9 9 10 9 9 11 11 13 18 13 13 2 nan 0 0 nan 0 0 1 3 1 1 nan nan nan nan nan nan nan nan nan nan nan nan nan nan nan nan nan nan nan nan nan nan nan nan nan nan nan nan nan nan nan nan 1 3 4 4 4 4 3 3 3 4 6 7 7 8 9 11 11 11 12 13 13 13 14 14 14 14 13 13 13
8 5 6 7 7 8 6 5 6 6 10 14 20 20 17 5 1 1 nan nan nan nan 1 nan nan nan nan nan nan nan nan nan nan nan nan nan nan nan nan nan nan nan nan nan nan nan nan nan nan nan nan nan nan nan nan nan nan nan nan 0 0 0 1 1 1 2 2 3 4 4 5 6 7 7 9 9 11 11 12 14 14 14 13 10 10 6
3 9 8 7 7 6 3 1 3 3 6 8 12 12 5 nan nan nan nan nan nan nan nan nan nan nan nan nan nan nan nan nan nan nan nan nan 0 0 nan nan nan nan nan nan nan nan nan nan nan nan nan nan nan nan nan nan nan nan nan nan nan nan nan nan nan nan nan 0 1 1 2 3 6 6 6 7 9 9 12 13 13 14 12 7 7 4
nan nan nan nan nan nan nan nan nan nan 1 1 2 2 0 nan nan nan nan nan nan nan nan nan nan nan nan nan nan nan nan nan nan nan nan 0 1 1 nan nan nan nan 0 0 0 nan nan nan nan nan nan nan nan nan nan nan nan nan nan nan nan nan nan nan nan nan nan nan 0 0 1 2 3 3 4 6 7 7 10 11 11 11 6 4 4 4
nan nan nan nan nan nan nan nan nan nan nan nan nan nan nan nan nan nan nan nan nan nan nan nan nan nan nan nan nan nan nan nan nan nan nan 1 0 0 nan 0 0 3 4 1 1 nan nan nan nan nan nan nan nan nan nan nan nan nan nan nan nan nan nan nan nan nan nan nan nan nan 0 1 1 1 2 3 5 5 7 9 9 9 5 3 3 3
nan nan nan nan nan nan nan nan nan nan nan nan nan nan nan nan nan nan nan nan nan nan nan nan nan nan nan nan nan nan nan nan nan nan nan 0 2 2 5 8 8 6 5 6 6 3 nan nan nan nan nan nan nan nan nan nan nan nan nan nan nan nan nan nan nan nan nan nan nan nan nan nan nan nan 0 1 2 2 3 5 5 6 4 3 3 4
nan nan nan nan nan nan nan nan nan nan nan nan nan nan nan nan nan nan nan nan nan nan nan nan nan nan nan nan nan nan nan nan 0 0 0 1 5 5 8 8 8 4 2 3 3 3 1 0 0 0 nan nan nan nan nan nan nan nan nan nan nan nan nan nan nan nan nan nan nan nan nan nan nan nan nan nan 0 0 1 3 3 5 8 3 3 5
nan nan nan nan nan nan nan nan nan nan nan nan nan nan nan nan nan nan nan nan nan nan nan nan nan nan nan nan 0 0 nan nan 0 0 7 8 8 8 6 3 3 2 2 2 2 1 1 1 1 0 nan nan nan nan nan nan nan nan nan nan nan nan nan nan nan nan nan nan nan nan nan nan nan nan nan nan nan nan 0 2 2 6 10 8 8 7
nan nan nan nan nan nan nan nan nan nan nan nan nan nan nan nan nan nan nan nan nan nan nan nan nan nan nan 0 0 0 nan nan nan nan 3 4 3 3 3 2 2 1 3 3 3 2 1 1 1 1 0 nan nan nan nan nan nan nan nan nan nan nan nan nan nan nan nan nan nan nan nan nan nan nan nan nan nan nan 0 3 3 8 11 15 15 14
nan nan nan nan nan nan nan nan nan nan nan nan nan nan nan nan nan nan nan nan nan nan 0 1 1 1 0 1 0 0 nan nan nan nan nan 0 2 2 3 2 2 3 3 3 3 3 2 1 1 2 1 0 nan nan nan nan nan nan nan nan nan nan nan nan nan nan nan nan nan nan nan nan nan nan nan nan 0 0 2 5 5 7 10 14 14 14
nan nan nan nan nan nan nan nan nan nan nan nan nan nan nan nan nan nan nan nan nan nan nan nan nan nan nan nan 0 0 nan nan nan nan nan 2 3 3 4 2 2 4 3 3 3 3 3 2 2 1 0 nan nan nan nan nan nan nan nan nan nan nan nan nan nan nan nan nan nan nan nan nan nan nan nan 1 1 1 2 4 4 4 5 8 8 11
nan nan nan nan nan nan nan nan nan nan nan nan nan nan nan nan nan nan nan nan nan nan nan nan nan nan nan nan nan nan nan nan nan nan nan 0 1 1 6 4 4 4 5 5 5 4 3 1 1 1 0 nan 0 0 0 0 0 nan nan nan nan nan nan nan nan nan nan nan nan nan nan nan nan nan 0 0 nan nan nan nan nan 0 1 2 2 5
nan nan nan nan nan nan nan nan nan nan nan nan nan nan nan nan nan nan nan nan nan nan nan nan nan nan nan nan nan nan nan nan nan nan nan nan 0 0 3 4 4 4 6 7 7 6 4 2 2 1 1 0 nan nan nan 0 0 nan 0 nan nan nan nan nan nan nan nan nan 0 0 0 nan nan nan nan nan nan nan nan nan nan nan 0 0 0 1
nan nan nan nan nan nan nan nan nan nan nan nan nan nan nan nan nan nan nan nan nan nan nan nan nan nan nan nan nan nan nan nan nan nan nan nan nan nan 3 2 2 3 5 8 8 7 5 3 3 3 2 1 0 0 0 0 0 0 2 0 0 nan nan nan nan nan nan nan 0 0 0 nan nan nan 0 1 0 0 0 nan nan nan 0 0 0 nan
nan nan nan nan nan nan nan nan nan nan nan nan nan nan nan 1 nan nan nan nan nan nan 1 0 0 0 nan nan nan nan nan nan nan nan nan nan nan nan nan 1 1 3 4 6 6 7 6 4 4 4 3 2 3 3 2 0 0 2 3 0 0 nan nan 0 0 nan nan nan nan nan 0 nan nan nan 0 0 0 0 0 0 0 0 0 0 0 0
nan nan nan nan nan nan nan nan nan nan nan nan nan nan 0 0 nan nan nan nan nan 0 0 2 2 3 1 1 0 0 nan nan nan nan nan nan nan nan nan nan nan nan 3 6 6 5 5 6 6 5 3 2 2 2 1 0 0 1 2 0 0 0 0 nan nan nan nan nan nan nan nan nan nan nan nan 0 0 0 0 0 0 1 1 0 0 0
nan nan nan nan nan nan nan nan nan nan nan nan 0 0 0 nan nan nan 0 0 0 0 1 3 3 4 1 0 nan nan 2 2 1 1 0 nan nan nan nan nan nan nan 0 4 4 4 4 6 6 4 3 3 3 3 1 1 1 0 1 1 1 1 0 nan nan nan nan nan nan nan nan nan nan nan nan nan nan nan 0 1 1 3 2 0 0 0
nan nan nan nan nan nan nan nan nan nan nan 2 nan nan 0 1 2 2 3 3 3 2 2 2 2 2 1 0 0 0 1 0 0 0 0 nan nan nan nan nan nan nan nan 3 3 4 3 3 3 3 3 3 3 3 1 1 1 0 nan 1 1 0 0 nan nan nan nan nan nan nan nan nan nan nan nan nan nan nan nan nan nan nan 1 1 1 0
nan nan nan nan nan nan nan nan nan nan 2 0 1 1 3 3 5 5 5 3 3 2 1 1 1 1 0 nan nan nan 0 1 0 0 nan 2 4 4 2 0 0 nan nan 0 0 3 3 3 3 2 2 3 3 3 1 1 1 0 0 0 0 1 0 0 0 nan nan nan nan nan nan nan 0 0 nan nan nan nan nan nan nan nan nan nan nan 0
nan nan nan nan nan nan nan nan 0 0 4 5 6 6 5 6 5 5 4 3 3 2 1 1 1 1 0 nan 0 0 0 0 0 0 nan nan 0 0 3 3 3 1 nan 0 0 1 2 2 2 2 2 3 2 2 1 0 0 0 0 0 0 0 0 nan nan nan nan nan nan nan nan 0 0 0 0 nan nan nan nan nan nan nan nan nan nan 0
nan nan nan nan nan nan nan nan 0 0 3 5 5 5 4 4 3 3 3 4 4 2 1 1 1 0 0 nan nan nan nan 0 0 0 0 0 nan nan nan 0 0 1 1 1 1 2 2 3 3 3 3 2 1 1 0 0 0 0 0 0 0 0 nan nan nan nan nan nan nan nan nan 1 1 1 0 nan nan nan 0 nan nan nan 0 0 0 0
nan nan nan nan nan nan nan nan 0 0 1 2 2 2 3 2 3 3 4 4 4 3 2 0 0 0 nan nan nan nan nan 0 0 0 0 1 1 1 nan nan nan nan 0 2 2 4 4 4 4 4 2 1 1 1 0 0 0 0 0 0 0 0 0 nan nan nan nan nan 0 0 1 1 0 0 0 0 0 0 nan nan nan 0 1 0 0 0
nan nan nan nan nan nan nan nan nan nan 0 0 1 1 0 3 6 6 2 1 1 1 0 0 0 nan nan nan nan nan nan 0 0 0 0 0 0 0 1 1 1 0 nan 1 1 2 2 6 6 5 3 2 1 1 0 0 0 0 0 0 0 0 0 nan nan nan nan nan nan nan nan 0 1 1 1 1 1 1 nan 0 0 nan 0 1 1 0
nan nan nan nan nan nan nan nan nan nan nan nan nan nan nan 0 0 0 0 0 0 0 0 0 0 nan nan nan nan nan nan nan nan nan nan 0 0 0 1 2 2 2 2 2 2 2 3 4 4 6 8 5 2 2 1 0 0 0 0 1 1 0 0 0 0 0 0 0 0 0 2 2 2 2 3 2 1 1 0 0 0 0 0 0 0 0
nan nan nan nan nan nan nan nan nan nan nan nan nan nan nan nan nan nan nan nan nan 0 0 0 0 0 nan nan nan nan nan nan nan nan 0 0 1 1 1 2 2 1 1 0 0 1 1 0 0 0 3 7 3 3 0 0 0 0 1 1 1 1 0 0 0 0 0 0 2 2 2 4 3 3 2 2 2 2 1 0 0 0 nan 0 0 0
CIN
-0 -0 -0 -0 -0 -0 -0 -0 -0 -0 -0 -0 -0 -0 -0 -0 -0 -0 -0 -0 -0 -0 -0 -0 -0 -0 -0 -0 -0 -0 -0 -0 -0 -0 -0 -0 -0 -0 -0 -0 -0 -0 -0 -0 -0 -0 -0 -0 -0 -0 -0 -0 -0 -0 -0 -0 -0 -0 -0 -0 -0 -0 -0 -0 -0 -0 -0 -0 -0 -0 -0 -0 -0 -0 -0 -0 -0 -0 -0 -0 -0 -0 -0 -0 -0 -0
-0 -0 -0 -0 -0 -0 -0 -0 -0 -0 -0 -0 -0 -0 -0 -0 -0 -0 -0 -0 -0 -0 -0 -0 -0 -0 -0 -0 -0 -0 -0 -0 -0 -0 -0 -0 -0 -0 -0 -0 -0 -0 -0 -0 -0 -0 -0 -0 -0 -0 -0 -0 -0 -0 -0 -0 -0 -0 -0 -0 -0 -0 -0 -0 -0 -0 -0 -0 -0 -0 -0 -0 -0 -0 -0 -0 -0 -0 -0 -0 -0 -0 -0 -0 -0 -0
-0 -0 -0 -0 -0 -0 -0 -0 -0 -0 -0 -0 -0 -0 -0 -0 -0 -0 -0 -0 -0 -0 -0 -0 -0 -0 -0 -0 -0 -0 -0 -0 -0 -0 -0 -0 -0 -0 -0 -0 -0 -0 -0 -0 -0 -0 -0 -0 -0 -0 -0 -0 -0 -0 -0 -0 -0 -0 -0 -0 -0 -0 -0 -0 -0 -0 -0 -0 -0 -0 -0 -0 -0 -0 -0 -0 -0 -0 -0 -0 -0 -0 -0 -0 -0 -0
-0 -0 -0 -0 -0 -0 -0 -0 -0 -0 -0 -0 -0 -0 -0 -0 -0 -0 -0 -0 -0 nan -0 -0 -0 -0 -0 nan nan nan -0 -0 -0 -0 -0 -0 -0 -0 -0 -0 -0 -0 -0 -0 -0 -0 -0 -0 -0 -0 -0 -0 -0 -0 -0 -0 -0 -0 -0 -0 -0 -0 -0 -0 -0 -0 -0 -0 -0 -0 -0 -0 -0 -0 -0 -0 -0 -0 -0 -0 -0 -0 -0 -0 -0 -0
-0 -0 -0 -0 -0 -0 -0 -0 -0 -0 -0 -0 -0 -0 -0 -0 -0 -0 -0 -0 -0 -0 -0 -0 -0 -0 -0 -0 -0 -0 -0 -0 -0 -0 -0 -0 -0 -0 -0 -0 -0 -0 -0 -0 -0 -0 -0 -0 -0 -0 -0 -0 -0 -0 -0 -0 -0 -0 -0 -0 -0 -0 -0 -0 -0 -0 -0 -0 -0 -0 -0 -0 -0 -0 -0 -0 -0 -0 -0 -0 -0 -0 -0 -0 -0 -0
-0 -0 -0 -0 -0 -0 -0 -0 -0 -0 -0 -0 -0 -0 -0 -0 -0 -0 -0 -0 -0 -0 -0 -0 -0 -0 -0 -0 -0 -0 -0 -0 -0 -0 -0 -0 -0 -0 -0 -0 -0 -0 -0 -0 -0 -0 -0 -0 -0 -0 -0 -0 -0 -0 -0 -0 -0 -0 -0 -0 -0 -0 -0 -0 -0 -0 -0 -0 -0 -0 -0 -0 -0 -0 -0 -0 -0 -0 -0 -0 -0 -0 -0 -0 -0 -0
-0 -0 -0 -0 -0 -0 -0 -0 -0 -0 -0 -0 -0 -0 -0 -0 -0 -0 -0 -0 -0 -0 -0 -0 -0 -0 -0 -0 -0 -0 -0 -0 -0 -0 -0 -0 -0 -0 -0 -0 -0 -0 -0 -0 -0 -0 -0 -0 -0 -0 -0 -0 -0 -0 -0 -0 -0 -0 -0 -0 -0 -0 -0 -0 -0 -0 -0 -0 -0 -0 -0 -0 -0 -0 -0 -0 -0 -0 -0 -0 -0 -0 -0 -0 -0 -0
-0 -0 -0 -0 -0 -0 -0 -0 -0 -0 -0 -0 -0 -0 -0 -0 -0 -0 -0 -0 -0 -0 -0 -0 -0 nan nan nan nan nan nan nan nan nan nan nan nan nan nan nan nan nan nan nan nan nan nan nan nan nan nan nan -0 -0 -0 -0 -0 -0 -0 -0 -0 -0 -0 -0 -0 -0 -0 -0 -0 -0 -0 -0 -0 -0 -0 -0 -0 -0 -0 -0 -0 -0 -0 -0 -0 -0
-0 -0 -0 -0 -0 -0 -0 -0 -0 -0 -0 -0 -0 -0 -0 nan -0 -0 nan nan nan nan nan nan nan nan nan nan nan nan nan nan nan nan nan nan nan nan nan nan nan nan nan nan nan nan nan nan nan nan nan nan nan nan nan nan nan nan nan nan nan -0 -0 -0 -0 -0 -0 -0 -0 -0 -0 -0 -0 -0 -0 -0 -0 -0 -0 -0 -0 -0 -0 -0 -0 -0
-0 -0 -0 -0 -0 -0 -0 -0 -0 -0 -0 -0 -0 -0 -0 nan nan nan nan nan nan nan nan nan nan nan nan nan nan nan nan nan nan nan nan nan nan nan nan nan nan nan nan nan nan nan nan nan nan nan nan nan nan nan nan nan nan nan nan nan nan nan -0 -0 -0 -0 -0 -0 -0 -0 -0 -0 -0 -0 -0 -0 -0 -0 -0 -0 -0 -0 -0 -0 -0 -0
-0 -0 -0 -0 -0 -0 -0 -0 -0 -0 -0 -0 -0 -0 -0 nan nan nan nan nan nan nan nan nan nan nan nan nan nan nan nan nan nan nan nan nan nan nan nan nan nan nan nan nan nan nan nan nan nan nan nan nan nan nan nan nan nan nan nan nan nan nan nan -0 -0 -0 -0 -0 -0 -0 -0 -0 -0 -0 -0 -0 -0 -0 -0 -0 -0 -0 -0 -0 -0 -0
nan -0 -1 nan nan nan nan nan nan nan nan nan nan nan nan nan nan nan nan nan nan nan nan nan nan nan nan nan nan nan nan nan nan nan nan nan nan nan nan nan nan nan nan nan nan nan nan nan nan nan nan nan nan nan nan nan nan nan nan nan nan nan nan -0 -0 -0 -0 -0 -0 -0 -0 -0 -0 -0 -0 -0 -0 -0 -0 -0 -0 -0 -0 -0 -0 -0
nan nan nan nan nan nan nan nan nan nan nan nan nan nan nan nan nan nan nan nan nan nan nan nan nan nan nan nan nan nan nan nan nan nan nan nan nan nan nan nan nan nan nan nan nan nan nan nan nan nan nan nan nan nan nan nan nan nan nan nan nan nan nan nan nan -0 -0 -0 -0 -0 -0 -0 -0 -0 -0 -0 -0 -0 -0 -0 -0 -0 -0 -0 -0 -0
nan nan nan nan nan nan nan nan nan nan nan nan nan nan nan nan nan nan nan nan nan nan nan nan nan nan nan nan nan nan nan nan nan nan nan nan nan nan nan nan nan nan nan nan nan nan nan nan nan nan nan nan nan nan nan nan nan nan nan nan nan nan nan -0 -0 -0 -0 -0 -0 -0 -0 -0 -0 -0 -0 -0 -0 -0 -0 -0 -0 -0 -0 -0 -0 -0
nan nan nan nan nan nan nan nan nan nan nan nan nan nan nan nan nan nan nan nan nan nan nan nan nan nan nan nan nan nan nan nan nan nan nan nan nan nan nan nan nan nan nan nan nan nan nan nan nan nan nan nan nan nan nan nan nan nan nan nan nan -0 -0 -0 -0 -0 -0 -0 -0 -0 -0 -0 -0 -0 -0 -0 -0 -0 -0 -0 -0 -0 -0 -0 -0 -0
nan nan nan nan nan nan nan nan nan nan nan nan nan nan nan nan nan nan nan nan nan nan nan nan nan nan nan nan nan nan nan nan nan nan nan nan nan nan nan nan nan nan nan nan nan nan nan nan nan nan nan nan nan nan nan nan nan -0 -0 -0 -0 -0 -0 -0 -0 -0 -0 -0 -0 -0 -0 -0 -0 -0 -0 -0 -0 -0 -0 -0 -0 -0 -0 -0 -0 -0
nan nan nan nan nan nan nan nan nan nan nan nan nan nan nan nan nan nan nan nan nan nan nan nan nan nan nan nan nan nan nan nan nan nan nan nan nan nan nan nan nan nan nan nan nan nan nan nan nan nan nan nan nan nan -0 -0 -0 -0 -0 -0 -0 -0 -0 -0 -0 -0 -0 -0 -0 -0 -0 -0 -0 -0 -0 -0 -0 -0 -0 -0 -0 -0 -0 -0 -0 -0
nan nan nan nan nan nan nan nan nan nan nan nan nan nan nan nan nan nan nan nan nan nan nan nan nan nan nan nan nan nan nan nan nan nan nan nan nan nan nan nan nan nan nan nan nan nan nan nan nan nan nan nan -0 -0 -0 -0 -0 -0 -0 -0 -0 -0 -0 -0 -0 -0 -0 -0 -0 -0 -0 -0 -0 -0 -0 -0 -0 -0 -0 -0 -0 -0 -0 -0 -0 -0
nan nan nan nan nan nan nan nan nan nan nan nan nan nan nan nan nan nan nan nan nan nan nan nan nan nan nan nan nan nan nan nan nan nan nan nan nan nan nan nan nan nan nan nan nan nan nan nan nan nan nan nan nan nan -0 -0 -0 -0 -0 -0 -0 -0 -0 -0 -0 -0 -0 -0 -0 -0 -0 -0 -0 -0 -0 -0 -0 -0 -0 -0 -0 -0 -0 -0 -0 -0
nan nan nan nan nan nan nan nan nan nan nan nan nan nan nan nan nan nan nan nan nan nan nan nan nan nan nan nan nan nan nan nan nan nan nan nan nan nan nan nan nan nan nan nan nan nan nan nan nan nan nan nan nan nan nan -0 -0 -0 -0 -0 -0 -0 -0 -0 -0 -0 -0 -0 -0 -0 -0 -0 -0 -0 -0 -0 -0 -0 -0 -0 -0 -0 -0 -0 -0 -0
nan nan nan nan nan nan nan nan nan nan nan nan nan nan nan nan nan nan nan nan nan nan nan nan nan nan nan nan nan nan nan nan nan nan nan nan nan nan nan nan nan nan nan nan nan nan nan nan nan nan nan nan nan nan -0 -0 -0 -0 -0 -0 -0 -0 -0 -0 -0 -0 -0 -0 -0 -0 -0 -0 -0 -0 -0 -0 -0 -0 -0 -0 -0 -0 -0 -0 -0 -0
nan nan nan nan nan nan nan nan nan nan nan nan nan nan nan nan nan nan nan nan nan nan nan -0 -0 nan nan nan nan nan nan nan nan nan -0 nan nan nan nan nan nan nan nan nan nan nan nan nan nan nan nan nan nan nan -0 -0 -0 -0 -0 -0 -0 -0 -0 -0 -0 -0 -0 -0 -0 -0 -0 -0 -0 -0 -0 -0 -0 -0 -0 -0 -0 -0 -0 -0 -0 -0
nan nan nan nan nan nan nan nan nan nan nan nan nan nan nan nan -1 -1 nan nan nan nan -0 nan nan nan nan nan nan nan nan nan nan nan nan nan nan nan nan nan nan nan nan nan nan nan nan nan nan nan nan nan nan nan -0 -0 -0 -0 -0 -0 -0 -0 -0 -0 -0 -0 -0 -0 -0 -0 -0 -0 -0 -0 -0 -0 -0 -0 -0 -0 -0 -0 -0 -0 -0 -0
nan nan nan nan nan nan nan nan nan nan nan nan nan nan nan nan nan nan nan nan nan nan nan nan nan nan nan nan nan nan nan nan nan nan nan -0 nan nan nan nan nan nan nan nan nan nan nan nan nan nan nan nan nan nan -0 -0 -0 -0 -0 -0 -0 -0 -0 -0 -0 -0 -0 -0 -0 -0 -0 -0 -0 -0 -0 -0 -0 -0 -0 -0 -0 -0 -0 -0 -0 -0
nan nan nan nan nan nan nan nan nan nan nan nan nan nan nan nan nan nan nan nan nan nan nan nan nan -0 -0 -0 -0 -0 nan nan nan nan nan nan nan nan nan nan nan nan nan nan nan nan nan nan nan nan nan nan nan nan -0 -0 -0 -0 -0 -0 -0 -0 -0 -0 -0 -0 -0 -0 -0 -0 -0 -0 -0 -0 -0 -0 -0 -0 -0 -0 -0 -0 -0 -0 -0 -0
nan -35 nan nan nan -26 -15 -0 -0 -0 -19 -9 -22 -22 nan nan nan nan nan nan nan nan nan -0 -0 -0 nan nan nan nan nan nan nan nan nan nan nan nan nan nan nan nan nan nan nan nan nan nan nan nan nan nan nan nan nan -0 -0 -0 -0 -0 -0 -0 -0 -0 -0 -0 -0 -0 -0 -0 -0 -0 -0 -0 -0 -0 -0 -0 -0 -0 -0 -0 -0 -0 -0 -0
-6 -4 -0 -0 -0 -0 -0 -0 -0 -0 -0 -0 -0 -0 -6 nan -0 -0 nan -0 -0 -0 -0 -0 -0 nan nan nan nan nan nan nan nan nan nan nan nan nan nan nan nan nan nan nan nan nan nan nan nan nan nan nan nan nan nan nan nan -0 -0 -0 -0 -0 -0 -0 -0 -0 -0 -0 -0 -0 -0 -0 -0 -0 -0 -0 -0 -0 -0 -0 -0 -0 -0 -0 -0 -0
-0 -0 -0 -0 -0 -0 -0 -0 -0 -0 -0 -0 -0 -0 -0 -0 -0 -0 nan nan nan nan -0 nan nan nan nan nan nan nan nan nan nan nan nan nan nan nan nan nan nan nan nan nan nan nan nan nan nan nan nan nan nan nan nan nan nan nan nan -0 -0 -0 -0 -0 -0 -0 -0 -0 -0 -0 -0 -0 -0 -0 -0 -0 -0 -0 -0 -0 -0 -0 -0 -0 -0 -0
-17 -4 -2 -1 -1 -4 -7 -9 -2 -2 -0 -0 -0 -0 -0 nan nan nan nan nan nan nan nan nan nan nan nan nan nan nan nan nan nan nan nan nan -0 -0 nan nan nan nan nan nan nan nan nan nan nan nan nan nan nan nan nan nan nan nan nan nan nan nan nan nan nan nan nan -0 -0 -0 -0 -0 -0 -0 -0 -0 -0 -0 -0 -0 -0 -0 -0 -0 -0 -0
nan nan nan nan nan nan nan nan nan nan -0 -0 -0 -0 -0 nan nan nan nan nan nan nan nan nan nan nan nan nan nan nan nan nan nan nan nan -0 -0 -0 nan nan nan nan -0 -0 -0 nan nan nan nan nan nan nan nan nan nan nan nan nan nan nan nan nan nan nan nan nan nan nan -0 -0 -0 -0 -0 -0 -0 -0 -0 -0 -0 -0 -0 -0 -0 -0 -0 -0
nan nan nan nan nan nan nan nan nan nan nan nan nan nan nan nan nan nan nan nan nan nan nan nan nan nan nan nan nan nan nan nan nan nan nan -0 -0 -0 nan -0 -0 -0 -0 -0 -0 nan nan nan nan nan nan nan nan nan nan nan nan nan nan nan nan nan nan nan nan nan nan nan nan nan -0 -0 -0 -0 -0 -0 -0 -0 -0 -0 -0 -0 -0 -0 -0 -0
nan nan nan nan nan nan nan nan nan nan nan nan nan nan nan nan nan nan nan nan nan nan nan nan nan nan nan nan nan nan nan nan nan nan nan -0 -0 -0 -0 -0 -0 -0 -0 -0 -0 -0 nan nan nan nan nan nan nan nan nan nan nan nan nan nan nan nan nan nan nan nan nan nan nan nan nan nan nan nan -0 -0 -0 -0 -0 -0 -0 -0 -0 -0 -0 -0
nan nan nan nan nan nan nan nan nan nan nan nan nan nan nan nan nan nan nan nan nan nan nan nan nan nan nan nan nan nan nan nan -1 -1 -7 -0 -0 -0 -0 -0 -0 -0 -0 -0 -0 -0 -0 -0 -0 -0 nan nan nan nan nan nan nan nan nan nan nan nan nan nan nan nan nan nan nan nan nan nan nan nan nan nan -0 -0 -0 -0 -0 -0 -0 -0 -0 -0
nan nan nan nan nan nan nan nan nan nan nan nan nan nan nan nan nan nan nan nan nan nan nan nan nan nan nan nan -0 -0 nan nan -0 -0 -0 -0 -0 -0 -0 -0 -0 -0 -0 -0 -0 -0 -0 -0 -0 -0 nan nan nan nan nan nan nan nan nan nan nan nan nan nan nan nan nan nan nan nan nan nan nan nan nan nan nan nan -0 -0 -0 -0 -0 -0 -0 -0
nan nan nan nan nan nan nan nan nan nan nan nan nan nan nan nan nan nan nan nan nan nan nan nan nan nan nan -0 -0 -0 nan nan nan nan -0 -0 -0 -0 -0 -0 -0 -0 -0 -0 -0 -0 -0 -0 -0 -0 -0 nan nan nan nan nan nan nan nan nan nan nan nan nan nan nan nan nan nan nan nan nan nan nan nan nan nan nan -0 -0 -0 -0 -0 -0 -0 -0
nan nan nan nan nan nan nan nan nan nan nan nan nan nan nan nan nan nan nan nan nan nan -0 -0 -0 -0 -0 -0 -0 -0 nan nan nan nan nan -0 -0 -0 -0 -0 -0 -0 -0 -0 -0 -0 -0 -0 -0 -0 -0 -0 nan nan nan nan nan nan nan nan nan nan nan nan nan nan nan nan nan nan nan nan nan nan nan nan -0 -0 -0 -0 -0 -0 -0 -0 -0 -0
nan nan nan nan nan nan nan nan nan nan nan nan nan nan nan nan nan nan nan nan nan nan nan nan nan nan nan nan -0 -0 nan nan nan nan nan -2 -0 -0 -0 -0 -0 -0 -0 -0 -0 -0 -0 -0 -0 -0 -0 nan nan nan nan nan nan nan nan nan nan nan nan nan nan nan nan nan nan nan nan nan nan nan nan -0 -0 -0 -0 -0 -0 -0 -0 -0 -0 -0
nan nan nan nan nan nan nan nan nan nan nan nan nan nan nan nan nan nan nan nan nan nan nan nan nan nan nan nan nan nan nan nan nan nan nan -7 -4 -4 -0 -0 -0 -0 -0 -0 -0 -0 -0 -0 -0 -0 -0 nan -0 -0 -0 -0 -0 nan nan nan nan nan nan nan nan nan nan nan nan nan nan nan nan nan -0 -0 nan nan nan nan nan -0 -0 -0 -0 -0
nan nan nan nan nan nan nan nan nan nan nan nan nan nan nan nan nan nan nan nan nan nan nan nan nan nan nan nan nan nan nan nan nan nan nan nan -2 -2 -0 -0 -0 -0 -0 -0 -0 -0 -0 -0 -0 -0 -0 -0 nan nan nan -0 -0 nan -0 nan nan nan nan nan nan nan nan nan -0 -0 -0 nan nan nan nan nan nan nan nan nan nan nan -0 -0 -0 -0
nan nan nan nan nan nan nan nan nan nan nan nan nan nan nan nan nan nan nan nan nan nan nan nan nan nan nan nan nan nan nan nan nan nan nan nan nan nan -0 -0 -0 -0 -0 -0 -0 -0 -0 -0 -0 -0 -0 -0 -0 -0 -0 -0 -0 -0 -0 -0 -0 nan nan nan nan nan nan nan -0 -0 -0 nan nan nan -0 -0 -0 -0 -0 nan nan nan -0 -0 -0 nan
nan nan nan nan nan nan nan nan nan nan nan nan nan nan nan -0 nan nan nan nan nan nan -0 -3 -3 -2 nan nan nan nan nan nan nan nan nan nan nan nan nan -0 -0 -0 -0 -0 -0 -0 -0 -0 -0 -0 -0 -0 -0 -0 -0 -0 -0 -0 -0 -0 -0 nan nan -0 -0 nan nan nan nan nan -0 nan nan nan -0 -0 -0 -0 -0 -0 -0 -0 -0 -0 -0 -0
nan nan nan nan nan nan nan nan nan nan nan nan nan nan -1 -0 nan nan nan nan nan -0 -1 -0 -0 -0 -0 -0 -0 -0 nan nan nan nan nan nan nan nan nan nan nan nan -0 -0 -0 -0 -0 -0 -0 -0 -0 -0 -0 -0 -0 -0 -0 -0 -0 -0 -0 -0 -0 nan nan nan nan nan nan nan nan nan nan nan nan -0 -0 -0 -0 -0 -0 -0 -0 -0 -0 -0
nan nan nan nan nan nan nan nan nan nan nan nan -1 -1 -0 nan nan nan -0 -0 -0 -0 -1 -0 -0 -0 -0 -0 nan nan -0 -3 -7 -7 -11 nan nan nan nan nan nan nan -0 -0 -0 -0 -0 -0 -0 -0 -0 -0 -0 -0 -0 -0 -0 -0 -0 -0 -0 -0 -0 nan nan nan nan nan nan nan nan nan nan nan nan nan nan nan -0 -0 -0 -0 -0 -0 -0 -0
nan nan nan nan nan nan nan nan nan nan nan -0 nan nan -0 -0 -0 -0 -0 -0 -0 -0 -0 -0 -0 -0 -0 -0 -0 -0 -0 -3 -14 -14 -11 nan nan nan nan nan nan nan nan -0 -0 -0 -0 -0 -0 -0 -0 -0 -0 -0 -0 -0 -0 -0 nan -0 -0 -0 -0 nan nan nan nan nan nan nan nan nan nan nan nan nan nan nan nan nan nan nan -0 -0 -0 -0
nan nan nan nan nan nan nan nan nan nan -0 -0 -0 -0 -0 -0 -0 -0 -0 -0 -0 -0 -0 -0 -0 -0 -0 nan nan nan -0 -0 -2 -2 nan -6 -4 -4 -3 -4 -4 nan nan -0 -0 -0 -0 -0 -0 -0 -0 -0 -0 -0 -0 -0 -0 -0 -0 -0 -0 -0 -0 -0 -0 nan nan nan nan nan nan nan -0 -0 nan nan nan nan nan nan nan nan nan nan nan -0
nan nan nan nan nan nan nan nan -0 -0 -0 -0 -0 -0 -0 -0 -0 -0 -0 -0 -0 -0 -0 -0 -0 -0 -0 nan -0 -0 -0 -0 -0 -0 nan nan -8 -8 -2 -1 -1 -0 nan -0 -0 -0 -0 -0 -0 -0 -0 -0 -0 -0 -0 -0 -0 -0 -0 -0 -0 -0 -0 nan nan nan nan nan nan nan nan -0 -0 -0 -0 nan nan nan nan nan nan nan nan nan nan -0
nan nan nan nan nan nan nan nan -0 -0 -0 -0 -0 -0 -0 -0 -0 -0 -0 -0 -0 -0 -0 -0 -0 -0 -0 nan nan nan nan -0 -0 -0 -0 -0 nan nan nan -2 -2 -0 -0 -0 -0 -0 -0 -0 -0 -0 -0 -0 -0 -0 -0 -0 -0 -0 -0 -0 -0 -0 nan nan nan nan nan nan nan nan nan -0 -0 -0 -0 nan nan nan -0 nan nan nan -0 -0 -0 -0
nan nan nan nan nan nan nan nan -0 -0 -0 -0 -0 -0 -0 -0 -0 -0 -0 -0 -0 -0 -0 -0 -0 -0 nan nan nan nan nan -0 -0 -0 -0 -0 -0 -0 nan nan nan nan -0 -0 -0 -0 -0 -0 -0 -0 -0 -0 -0 -0 -0 -0 -0 -0 -0 -0 -0 -0 -0 nan nan nan nan nan -0 -0 -0 -0 -0 -0 -0 -0 -0 -0 nan nan nan -0 -0 -0 -0 -0
nan nan nan nan nan nan nan nan nan nan -0 -0 -0 -0 -0 -0 -0 -0 -0 -0 -0 -0 -0 -0 -0 nan nan nan nan nan nan -0 -0 -0 -0 -0 -0 -0 -0 -0 -0 -0 nan -0 -0 -0 -0 -0 -0 -0 -0 -0 -0 -0 -0 -0 -0 -0 -0 -0 -0 -0 -0 nan nan nan nan nan nan nan nan -0 -0 -0 -0 -0 -0 -0 nan -0 -0 nan -0 -0 -0 -0
nan nan nan nan nan nan nan nan nan nan nan nan nan nan nan -0 -0 -0 -0 -0 -0 -0 -0 -0 -0 nan nan nan nan nan nan nan nan nan nan -0 -0 -0 -0 -0 -0 -0 -0 -0 -0 -0 -0 -0 -0 -0 -0 -0 -0 -0 -0 -0 -0 -0 -0 -0 -0 -0 -0 -0 -0 -0 -0 -0 -5 -5 -0 -0 -0 -0 -0 -0 -0 -0 -0 -0 -0 -0 -0 -0 -0 -0
nan nan nan nan nan nan nan nan nan nan nan nan nan nan nan nan nan nan nan nan nan -0 -0 -0 -0 -0 nan nan nan nan nan nan nan nan -0 -0 -0 -0 -0 -0 -0 -0 -0 -0 -0 -0 -0 -0 -0 -0 -0 -0 -0 -0 -0 -0 -0 -0 -0 -0 -0 -0 -0 -0 -0 -0 -0 -0 -0 -0 -0 -0 -0 -0 -0 -0 -0 -0 -0 -0 -0 -0 nan -0 -0 -0
Wind_Speed
2 2 2 2 2 1 2 3 3 2 2 2 3 3 3 3 4 4 6 5 5 4 4 4 4 4 5 7 8 8 8 7 7 6 6 5 5 4 3 3 2 2 2 3 4 4 5 6 7 7 7 8 8 9 9 10 11 11 12 12 12 13 13 13 14 14 14 14 13 13 13 12 11 10 9 8 8 8 8 8 8 8 8 8 8 8
1 1 1 2 2 1 1 2 3 2 2 2 2 2 2 3 3 3 3 4 4 3 3 3 3 3 4 4 6 6 6 6 6 5 5 4 4 3 2 2 2 3 3 4 4 5 6 7 7 7 7 7 8 8 9 10 11 12 12 12 13 13 13 13 13 13 13 13 13 12 12 11 10 10 9 9 9 9 9 9 9 9 9 9 9 9
1 1 1 2 2 2 1 2 2 2 2 2 2 2 2 2 2 2 2 2 3 3 2 2 2 3 3 3 4 5 5 5 4 4 4 3 3 3 2 2 3 3 4 4 5 6 7 7 6 6 6 7 8 9 10 11 11 12 13 13 13 13 13 13 13 12 12 12 12 11 11 10 10 9 9 9 9 9 9 9 9 9 9 10 10 10
1 1 1 1 2 2 2 2 2 2 2 2 3 3 3 2 2 2 2 2 2 2 2 2 2 2 3 3 3 4 4 3 3 3 3 3 3 3 3 3 4 4 5 6 6 6 7 6 6 6 7 8 9 10 10 11 12 13 13 13 13 13 13 13 12 12 12 11 11 11 10 9 9 9 9 9 9 9 9 9 10 10 10 10 10 11
1 1 1 1 1 1 1 1 1 1 2 2 2 2 2 2 2 1 1 1 2 2 2 2 2 2 2 2 3 3 3 3 3 3 3 4 4 5 5 5 6 6 7 7 7 6 6 6 6 7 7 8 9 10 11 11 12 12 12 13 12 12 12 11 11 10 10 10 10 9 9 8 8 7 7 8 8 8 9 9 9 10 10 10 11 11
1 1 1 1 1 1 1 1 1 1 1 2 2 2 2 1 1 1 1 1 1 1 1 2 2 2 2 2 2 3 4 4 4 5 5 5 6 6 6 6 7 7 6 6 6 5 5 6 6 7 7 8 9 10 10 11 11 11 11 11 10 9 9 9 9 8 8 8 8 8 7 7 7 7 7 7 7 8 8 9 9 9 10 10 11 11
1 1 1 1 1 1 1 1 1 1 1 1 1 1 1 1 1 1 1 1 1 1 1 1 1 2 2 2 3 3 4 5 6 6 7 7 7 7 6 5 5 5 4 4 4 5 5 6 6 7 8 9 9 10 11 11 11 11 10 9 9 8 7 7 7 7 7 7 7 7 7 7 7 7 7 7 8 8 9 9 10 10 10 11 11 11
1 1 1 1 0 0 0 1 1 1 1 1 1 1 1 0 0 0 0 0 1 1 1 1 1 1 1 2 3 3 4 4 5 5 6 6 5 5 4 4 3 3 4 4 5 5 6 7 8 8 9 10 10 11 11 11 11 11 10 9 9 8 8 7 7 7 7 7 7 7 7 7 7 7 7 8 8 9 9 10 11 11 11 11 11 11
1 1 1 1 1 0 0 0 1 1 1 1 1 1 1 0 0 0 1 0 0 0 1 1 1 1 1 2 2 2 3 3 3 3 3 2 2 2 3 3 4 4 5 5 6 7 7 8 9 9 10 11 11 11 12 12 11 11 10 10 9 9 9 8 8 8 8 8 8 8 8 8 8 8 8 9 9 10 10 11 11 12 12 12 12 12
1 1 1 0 1 1 0 0 1 1 1 1 1 1 1 1 1 1 0 0 1 1 1 1 1 1 1 2 2 2 2 2 2 2 2 2 3 3 4 4 4 5 6 6 7 8 8 9 10 10 11 11 12 12 12 12 11 11 11 10 10 10 10 10 10 10 10 10 10 9 9 9 9 9 10 10 10 11 11 12 12 12 13 13 12 12
1 1 0 0 0 0 0 0 1 1 1 1 1 1 1 1 1 2 1 1 1 1 1 1 1 1 2 2 2 2 1 1 1 2 3 4 5 5 5 5 5 5 6 6 7 8 8 9 10 11 11 12 12 12 12 11 11 11 11 11 11 11 11 11 11 11 11 11 11 11 11 11 11 11 11 11 12 12 12 12 13 13 13 13 12 12
1 0 0 0 0 0 0 0 0 0 1 1 1 1 1 1 1 2 2 1 1 1 1 1 1 1 1 2 2 2 1 1 1 1 2 3 3 4 4 3 4 4 5 5 6 7 8 9 10 10 10 11 11 11 11 10 10 11 11 11 11 12 12 12 12 12 12 12 12 12 12 12 12 12 13 13 13 13 13 13 13 13 13 12 12 12
0 0 0 0 1 1 1 1 1 1 1 1 1 1 1 2 1 1 1 1 1 1 1 1 1 1 1 1 2 2 2 1 1 1 1 1 1 2 2 2 2 3 3 4 4 5 7 8 8 9 9 9 10 10 10 10 10 10 11 11 12 12 13 13 13 13 13 13 13 13 13 13 13 13 13 13 13 13 13 13 13 13 13 12 12 12
1 1 0 1 1 1 1 1 1 1 1 2 2 1 1 1 1 1 0 1 1 1 1 1 0 1 1 2 2 2 2 1 1 1 1 0 0 1 1 2 2 3 3 3 4 4 6 6 6 7 8 8 9 9 9 9 10 10 11 11 12 13 13 13 13 14 14 14 14 14 14 14 14 13 13 13 13 13 13 13 13 13 12 12 12 12
1 1 1 1 1 1 1 1 1 1 1 1 1 1 1 1 1 1 1 1 1 1 1 1 0 1 1 1 1 1 2 1 1 1 1 1 0 0 1 2 3 3 3 3 4 5 5 5 5 5 6 7 8 8 9 9 10 10 11 11 12 12 13 13 13 13 13 13 13 14 14 13 13 13 13 13 13 13 13 13 13 13 12 12 12 12
0 0 1 1 1 1 1 1 1 1 1 1 1 1 1 1 1 1 1 1 1 1 1 1 1 0 1 2 1 1 2 1 1 1 3 2 1 0 0 2 4 4 4 4 4 4 4 4 4 4 5 7 8 9 10 9 10 10 11 11 12 12 12 13 13 13 13 13 13 13 13 13 13 13 13 13 13 13 13 13 13 12 12 12 12 12
0 0 0 0 0 0 0 1 1 1 1 1 1 1 1 1 1 1 1 1 1 1 1 1 1 1 1 1 2 2 2 1 1 1 3 4 2 1 1 1 3 5 4 4 4 4 4 4 4 4 4 6 8 9 10 10 10 10 11 11 11 12 12 12 12 12 13 13 13 13 13 13 13 13 12 12 13 13 13 13 13 12 12 12 12 12
0 0 0 0 0 0 0 0 0 1 1 0 0 1 1 1 1 1 0 0 1 1 1 0 0 0 1 1 1 1 2 2 2 2 3 5 3 1 1 1 2 3 4 4 4 4 4 4 4 4 5 8 9 10 11 11 11 11 11 12 12 12 12 12 12 13 13 13 13 13 13 13 12 12 12 12 13 13 13 13 13 12 12 12 12 12
0 0 0 0 0 0 0 0 0 0 0 0 0 0 1 1 1 1 1 1 1 0 0 0 0 0 1 1 1 1 1 1 2 3 4 5 4 2 1 1 2 2 3 4 4 4 4 4 4 6 7 9 11 11 12 12 12 12 12 12 13 13 13 13 13 13 13 13 13 13 13 13 13 13 13 13 13 13 13 13 13 13 12 12 12 12
1 1 1 1 0 0 0 0 0 0 0 0 0 0 0 0 0 0 1 1 1 0 0 0 0 1 1 1 1 1 1 0 1 3 4 5 4 2 1 1 2 2 3 3 3 3 3 3 4 5 8 9 11 12 13 13 13 13 13 13 13 13 13 13 13 13 13 13 13 13 13 13 13 13 13 13 13 13 13 13 13 13 13 13 13 13
1 1 1 1 1 0 1 1 0 0 1 1 1 1 0 0 0 0 0 0 0 0 0 0 1 1 1 1 1 0 1 0 1 2 3 3 3 2 1 1 1 2 3 3 3 3 3 3 3 4 6 9 11 13 13 13 13 13 13 13 13 13 13 13 13 13 13 13 13 13 13 13 13 13 13 13 13 13 13 13 13 13 13 13 13 13
1 1 1 2 1 0 1 0 1 1 2 2 1 0 0 0 0 0 0 1 1 1 1 1 1 1 1 2 1 0 1 1 1 2 2 3 3 2 1 0 1 2 4 4 3 3 3 3 4 5 7 10 12 13 13 13 13 13 12 12 12 12 12 12 13 13 13 13 13 13 13 13 13 13 13 13 13 13 13 13 13 13 13 13 13 13
2 2 2 2 2 1 0 1 1 2 2 2 1 1 0 0 0 1 1 1 1 1 1 1 1 1 1 2 2 1 1 1 1 1 2 3 3 2 1 0 1 3 4 4 4 3 4 4 4 5 7 10 11 12 12 11 11 11 11 11 11 11 11 11 11 12 12 12 12 12 12 12 12 12 12 12 12 12 12 12 12 12 12 13 13 13
2 2 2 2 2 2 1 1 1 2 2 2 2 1 1 1 1 1 1 1 1 1 1 1 2 2 3 3 3 2 2 2 2 1 2 3 3 2 0 0 2 4 5 4 4 4 4 5 5 5 5 8 9 10 10 9 9 9 9 9 9 9 9 9 9 9 10 10 10 10 10 10 10 10 11 11 11 11 11 11 12 12 12 13 13 13
2 2 2 2 2 2 2 2 1 2 2 2 2 1 1 1 1 1 1 1 1 1 1 2 3 4 3 3 2 1 2 2 2 2 2 2 3 2 0 0 2 4 5 4 4 4 5 5 5 5 4 5 6 8 8 8 8 8 8 7 7 7 7 7 8 8 8 8 8 9 9 9 9 10 10 10 11 11 11 12 12 12 13 13 14 14
2 2 2 2 1 1 1 2 2 2 2 2 1 1 1 1 1 1 1 2 2 3 3 5 5 5 4 3 2 2 1 2 2 2 2 2 3 3 1 1 1 3 5 5 4 4 5 6 5 4 3 3 4 6 7 8 8 8 8 8 8 9 9 9 9 10 9 9 9 9 9 10 10 10 10 11 11 12 12 12 13 13 13 14 14 14
0 1 1 1 2 3 4 5 6 6 7 7 6 4 1 1 1 2 3 3 3 3 4 5 5 5 4 3 2 1 1 2 2 2 2 2 3 3 2 1 1 2 4 5 5 5 6 6 5 4 3 2 3 4 7 8 9 9 9 9 10 10 11 11 11 11 11 11 10 10 10 10 11 11 11 11 12 12 12 13 13 13 13 13 12 12
3 2 2 2 3 3 3 4 4 5 7 8 9 8 5 2 2 4 4 3 2 3 4 5 5 5 4 3 2 1 1 2 2 2 2 1 2 3 2 1 1 2 4 4 5 4 5 4 4 3 2 2 2 3 6 7 8 9 10 10 11 11 11 11 11 11 11 11 11 11 11 11 11 11 11 11 12 12 12 13 13 13 12 11 9 8
4 4 3 3 3 3 3 3 3 4 6 7 9 8 5 2 2 4 4 2 2 3 4 5 5 4 4 4 3 2 3 2 1 2 2 1 2 2 1 1 1 2 3 4 4 3 2 2 1 1 2 2 3 3 4 6 7 8 9 10 11 11 11 11 11 11 11 11 11 11 11 11 11 11 11 11 12 12 12 13 12 11 10 8 8 7
3 3 3 3 3 3 3 2 3 4 6 7 8 8 5 2 2 3 3 2 2 3 4 4 4 4 3 3 3 3 2 1 1 2 2 1 2 2 1 2 2 2 3 3 4 3 2 1 1 1 1 3 3 4 4 5 6 6 6 8 9 9 10 10 11 11 11 11 11 11 11 11 11 11 11 11 12 12 12 12 12 10 7 7 7 7
1 1 1 1 2 2 2 2 3 3 4 5 5 5 3 1 2 2 2 2 3 3 4 4 4 3 3 3 2 2 1 0 1 2 2 1 2 2 2 3 3 2 1 2 3 3 3 2 1 1 1 3 4 4 5 5 5 5 5 5 6 6 8 9 10 10 10 10 10 11 11 11 11 11 12 12 12 12 12 12 11 9 7 6 6 7
0 1 1 1 2 2 2 2 2 2 3 3 3 2 2 1 1 2 2 2 3 3 3 3 3 3 3 3 3 2 2 0 2 3 2 1 2 2 2 3 3 2 1 2 2 3 3 3 2 2 2 4 4 5 5 5 5 4 4 4 4 5 7 8 9 9 9 10 10 11 11 11 11 12 12 12 12 12 12 12 11 9 7 6 6 7
1 1 1 1 2 2 2 2 2 2 2 2 1 1 1 1 1 1 2 2 2 3 3 3 3 3 3 3 3 3 2 1 2 3 3 1 1 2 2 2 3 3 2 2 3 3 3 4 4 4 4 4 4 4 4 4 4 4 4 4 4 4 6 6 7 7 7 8 8 9 10 10 11 11 12 12 12 12 12 12 11 10 8 7 6 7
1 1 2 2 2 2 2 2 2 2 2 1 1 1 0 0 1 1 1 2 2 2 2 2 2 2 2 3 3 3 3 2 1 1 1 1 1 2 2 3 3 3 3 3 3 3 4 4 4 5 4 4 4 4 4 4 4 3 3 3 3 4 4 5 5 6 6 6 6 6 7 8 8 9 10 10 10 11 11 11 11 11 10 8 7 6
1 1 2 2 2 2 2 2 2 2 1 1 1 1 1 0 0 1 1 2 2 2 2 2 2 2 2 2 2 3 3 2 2 3 3 2 2 2 3 3 3 3 3 3 3 3 3 5 5 5 5 5 4 4 3 2 2 2 2 2 3 3 4 4 5 5 6 6 5 5 5 5 5 6 7 8 9 10 11 12 12 12 12 11 10 8
1 1 2 1 2 2 2 2 2 1 1 1 1 1 1 1 0 0 1 1 2 2 2 2 2 2 2 2 3 3 3 2 3 3 4 3 3 3 3 3 3 3 3 4 4 4 4 5 5 6 6 6 5 4 3 2 1 2 2 3 4 4 4 4 5 5 5 5 5 5 5 4 5 5 6 8 9 11 12 12 12 13 13 13 12 11
1 1 1 1 1 1 2 1 1 1 1 1 1 1 1 1 1 1 1 1 1 1 1 2 2 2 3 3 3 3 3 3 3 3 3 3 3 3 4 4 4 4 4 4 4 4 4 5 5 6 6 5 5 4 4 3 3 3 4 4 4 5 5 5 5 5 5 5 5 5 5 5 5 5 6 8 9 10 11 12 12 12 13 13 13 14
1 1 1 1 1 1 1 1 1 1 1 1 1 1 1 1 1 1 1 1 1 2 2 2 2 3 4 4 4 4 4 4 4 4 4 3 3 3 4 5 5 5 5 5 5 5 5 5 5 5 5 5 5 5 5 5 5 5 5 5 5 5 5 5 4 4 4 5 5 6 6 6 5 5 6 6 6 7 7 8 8 9 11 11 12 13
1 1 1 1 1 1 1 1 1 1 1 1 2 2 2 2 2 2 2 2 2 3 3 3 2 3 4 4 5 5 5 5 5 5 5 4 4 4 4 5 5 5 5 5 5 5 5 5 5 5 5 5 5 5 5 5 5 6 6 5 5 5 4 4 4 4 4 5 5 6 6 6 5 5 5 5 5 5 6 6 6 7 8 7 8 10
1 1 2 2 2 2 2 2 2 1 1 2 2 2 2 2 2 2 2 2 2 3 3 3 3 3 3 4 4 5 5 4 4 5 4 4 4 4 4 4 4 5 4 4 4 5 5 5 6 6 6 5 5 5 5 5 5 6 6 5 4 4 4 4 4 4 5 5 5 5 5 5 5 5 5 5 5 5 6 5 5 6 6 6 6 6
2 2 2 2 2 2 2 2 2 2 2 2 2 2 2 2 1 1 2 3 3 3 2 2 3 3 3 3 3 4 4 4 4 4 4 5 5 5 4 4 4 4 4 5 5 5 5 6 6 6 6 6 6 6 6 6 7 7 7 6 5 5 6 6 6 5 5 4 4 4 5 6 6 6 6 6 6 6 6 6 6 6 6 6 6 6
2 2 2 2 2 2 2 2 2 2 2 2 2 1 2 2 2 2 2 2 3 3 2 3 3 3 3 3 3 3 4 4 5 5 5 6 6 6 5 5 4 4 4 5 5 5 5 6 6 6 6 6 6 6 6 6 7 7 6 6 7 7 7 6 5 4 4 4 4 4 5 6 6 6 6 6 6 6 6 7 7 7 7 6 6 6
2 2 2 2 2 2 3 3 3 2 2 2 2 2 2 2 2 2 3 3 3 3 3 3 3 3 3 3 3 3 3 4 5 6 6 6 6 6 6 6 5 5 4 4 5 5 6 6 6 6 6 6 6 6 7 7 7 7 6 7 7 6 5 4 4 4 4 5 5 5 5 5 5 5 6 6 6 6 6 7 8 8 8 7 7 7
2 2 2 2 2 3 3 2 2 2 2 2 2 2 3 3 3 3 3 3 3 3 3 2 2 3 3 4 4 3 3 3 4 5 6 6 7 7 6 7 6 6 5 5 4 4 5 6 6 6 6 5 6 6 7 7 7 7 7 7 7 6 6 5 5 6 6 6 5 5 5 5 5 6 6 6 6 6 6 6 7 7 7 7 7 7
2 2 2 2 2 2 2 2 2 2 3 3 3 3 3 3 3 3 3 3 3 3 3 2 2 3 3 3 3 3 2 2 3 3 4 6 7 8 7 7 6 6 6 6 5 5 5 5 5 5 5 5 6 7 7 7 8 8 7 7 7 7 7 7 7 7 7 6 6 6 6 5 5 6 6 6 6 6 6 6 7 7 7 7 7 7
1 1 1 1 2 2 2 3 2 2 3 3 3 2 2 2 2 2 3 3 3 3 3 2 2 3 3 3 3 3 2 2 2 2 3 3 4 5 6 6 6 6 6 6 6 6 6 6 6 5 5 6 6 7 8 8 8 8 7 7 7 7 7 7 7 7 7 7 7 6 6 6 6 6 6 7 7 7 7 7 7 7 7 7 7 8
1 1 2 2 2 2 3 3 3 3 3 3 3 3 2 2 2 2 3 3 3 3 3 3 3 3 4 4 3 3 3 3 3 3 3 3 3 4 4 5 5 6 6 6 6 7 7 7 7 6 6 6 7 7 8 7 8 8 8 7 7 7 7 7 7 7 7 7 7 7 6 6 6 7 7 7 7 7 7 7 7 7 7 7 7 8
2 2 2 2 2 3 3 3 3 3 3 3 3 3 3 2 3 3 3 3 3 3 3 3 3 4 4 4 4 4 4 4 4 3 3 3 3 3 3 4 4 5 5 6 7 7 8 8 8 8 7 7 7 7 8 8 7 7 7 7 7 7 7 7 7 7 7 7 7 7 6 6 6 7 7 8 8 8 8 7 7 7 7 7 8 8
2 2 2 2 2 3 3 3 3 3 4 4 3 3 3 3 4 4 3 3 3 3 3 3 4 4 4 4 4 4 4 4 4 4 4 3 3 3 3 3 3 4 4 5 6 7 7 8 9 10 9 9 9 8 9 8 8 7 7 7 7 7 7 7 7 7 7 7 7 6 6 6 6 7 7 8 9 9 9 8 8 8 7 7 8 8
2 2 2 2 3 3 3 3 4 4 4 4 4 4 3 3 3 3 3 3 3 3 3 4 4 4 5 5 4 4 4 4 4 4 4 3 3 3 3 3 3 4 4 4 4 5 5 6 7 9 11 12 11 10 9 9 8 7 7 7 7 7 7 7 7 7 7 7 7 6 7 7 7 7 7 8 9 10 10 9 8 8 7 7 7 8
2 2 2 3 3 3 3 4 4 4 5 5 5 4 4 4 3 3 3 3 3 4 4 4 4 5 5 5 5 5 5 5 5 4 4 3 3 3 3 3 3 3 3 3 3 3 3 3 4 5 8 12 14 13 10 9 8 7 7 7 7 6 7 7 7 7 7 7 7 7 7 7 7 7 7 7 9 10 10 10 9 8 7 7 7 8
Wind_Direction
27 18 13 7 4 13 30 28 34 46 58 53 48 45 42 41 43 43 44 44 45 45 46 43 39 32 23 15 10 6 1 357 353 349 346 343 341 340 345 352 352 345 335 322 311 301 292 286 284 284 287 292 295 297 298 296 293 290 288 284 281 279 277 275 274 274 274 275 276 278 280 282 285 289 296 298 299 298 296 294 293 291 290 288 287 285
28 20 16 13 17 28 38 32 36 48 63 65 61 55 50 50 46 43 40 42 43 43 42 39 37 33 27 15 6 1 356 350 344 338 334 329 324 322 322 327 324 317 311 303 296 289 283 282 284 288 295 298 298 296 295 293 291 289 287 285 283 281 279 278 278 277 277 279 280 282 284 286 289 291 294 293 292 290 289 289 289 289 289 288 287 286
11 18 22 22 26 33 38 32 36 47 64 74 77 75 70 62 54 46 37 35 37 39 38 32 28 25 22 12 4 359 355 348 340 330 321 312 304 297 295 296 293 289 284 279 276 275 275 278 282 286 289 288 287 286 284 284 283 282 281 280 279 279 278 277 277 278 278 279 280 281 283 285 287 289 289 288 287 286 286 286 286 286 286 285 283 282
17 23 22 27 33 37 34 31 34 46 61 75 82 85 81 73 63 51 39 27 24 24 25 20 15 12 11 7 0 356 351 342 329 313 295 282 273 267 262 263 263 262 261 261 262 264 267 270 272 273 273 274 273 273 275 275 274 274 275 274 275 276 275 276 277 277 277 279 279 280 281 283 285 286 287 287 288 289 289 290 290 290 288 286 284 282
39 29 22 21 28 34 25 24 32 44 60 70 75 77 76 74 69 60 42 22 12 7 4 1 1 1 358 357 351 345 338 327 314 299 283 275 268 262 256 255 254 253 252 252 253 255 258 261 263 264 268 270 271 272 274 273 273 274 274 274 277 279 280 281 282 283 282 281 280 280 279 280 281 283 284 287 290 292 294 295 295 294 292 289 286 284
48 31 20 15 17 18 2 9 18 31 50 57 60 58 58 60 62 58 33 9 354 346 341 339 340 341 341 340 337 331 324 320 315 310 303 296 286 277 268 263 258 255 254 254 254 257 262 267 271 274 278 280 282 282 283 282 282 283 284 285 288 292 294 294 293 291 288 284 281 278 276 276 276 278 280 284 288 291 293 293 293 293 291 289 287 284
68 45 29 24 18 9 3 7 12 16 29 41 47 48 47 49 41 25 358 341 330 325 322 320 321 322 324 331 328 325 322 321 321 319 316 311 305 299 291 284 277 272 271 273 277 283 288 292 293 294 294 294 293 291 291 291 291 293 296 298 301 303 303 301 298 294 289 285 281 278 275 274 275 277 279 282 284 286 287 287 287 287 286 285 284 282
83 65 39 33 18 20 27 26 18 16 12 22 40 55 58 62 61 40 331 309 310 317 319 314 313 315 326 335 333 328 323 321 319 317 314 315 317 319 320 322 322 319 314 314 314 313 313 311 308 305 302 299 296 294 293 293 294 297 300 302 303 303 300 297 294 291 289 285 282 279 277 277 277 278 278 280 281 281 281 281 281 280 279 279 278 277
73 64 45 20 358 349 9 52 38 16 355 355 7 24 34 43 65 147 177 177 186 334 326 317 312 316 340 352 346 331 317 309 302 298 299 314 333 347 356 359 355 349 343 338 332 328 324 318 313 308 303 298 295 292 291 291 293 295 298 298 298 296 293 291 289 287 286 284 282 281 279 278 278 278 277 278 278 278 277 277 276 275 274 274 273 272
70 65 52 10 336 326 326 29 41 20 347 340 352 2 7 4 2 353 307 128 105 78 21 342 328 327 342 1 357 343 323 310 309 319 3 25 29 26 22 17 8 357 350 344 338 332 326 319 312 306 301 296 292 289 288 289 290 291 292 292 291 290 288 286 284 282 282 281 280 279 278 278 277 276 276 276 275 275 274 273 272 272 271 270 270 269
83 80 65 284 300 316 331 4 25 16 352 338 350 11 26 16 359 344 336 10 58 71 55 30 6 349 343 356 1 3 357 344 353 14 32 31 30 28 24 16 6 356 348 340 333 326 321 314 308 303 298 294 290 288 287 286 286 286 286 285 285 283 282 281 280 278 278 277 277 276 276 276 275 275 274 274 273 272 271 270 269 269 268 267 267 266
88 85 311 284 317 346 351 4 28 35 12 3 7 33 64 43 15 344 330 339 1 26 29 37 38 29 9 357 356 357 3 15 28 32 29 27 25 21 15 5 354 344 338 329 321 316 312 309 305 302 298 295 292 290 289 287 285 283 281 279 279 278 277 277 276 275 275 275 274 274 274 273 273 273 272 272 271 270 269 267 266 264 263 263 262 262
34 349 311 350 8 10 359 352 3 22 31 22 17 16 24 26 9 345 331 348 1 1 349 351 37 61 49 22 5 354 352 4 15 20 2 13 16 9 351 335 326 323 321 315 309 307 308 307 305 303 302 300 297 295 293 290 285 281 278 276 275 275 275 274 274 273 273 272 272 272 271 271 271 270 270 269 268 267 265 264 262 260 258 258 257 258
2 348 357 28 24 17 1 357 3 14 25 20 12 1 353 354 347 340 351 29 24 355 312 304 344 72 70 48 26 1 345 345 349 345 319 332 15 2 325 310 307 307 309 307 306 307 311 312 309 307 306 304 301 299 296 291 286 281 277 275 274 273 273 273 272 272 271 270 270 269 269 268 267 267 266 266 265 263 262 260 258 257 255 254 254 254
358 358 31 36 27 13 1 357 3 13 18 11 351 330 313 336 354 7 34 39 19 350 314 296 293 97 93 72 43 9 341 345 348 338 317 306 319 51 311 302 301 301 303 306 307 308 313 313 310 307 306 304 302 300 297 290 284 279 277 275 273 273 272 271 270 270 269 268 267 266 265 265 264 264 263 262 262 261 259 258 257 256 254 253 253 253
350 18 55 52 34 6 352 344 347 353 353 345 332 326 333 14 19 22 38 29 10 355 356 356 358 36 108 110 89 41 348 355 357 341 320 309 305 131 148 303 304 305 306 308 308 310 312 309 306 303 303 302 300 299 298 291 285 281 279 276 274 273 272 271 271 270 268 267 266 265 264 263 262 262 261 260 260 260 259 258 257 256 255 254 254 254
348 45 86 78 61 5 328 317 314 314 315 321 338 2 21 24 17 16 43 41 25 24 24 19 2 345 339 118 103 75 8 351 350 336 317 308 312 348 80 310 305 305 309 309 309 309 309 308 307 305 303 301 301 301 301 296 291 287 284 281 279 278 276 275 274 272 271 269 268 266 265 264 262 262 261 260 260 260 260 259 259 258 257 257 257 257
167 147 134 121 113 274 288 293 287 281 287 308 5 43 55 44 29 18 33 45 48 49 46 52 45 332 314 312 58 72 28 348 335 326 312 304 308 333 52 326 298 296 303 303 303 303 304 305 306 306 303 306 307 306 305 302 298 294 290 287 285 282 280 278 277 275 274 272 271 269 267 266 264 263 262 262 261 261 260 260 260 260 259 260 260 260
175 192 176 169 175 212 271 284 287 288 317 355 6 35 71 50 33 17 18 25 47 62 85 132 172 218 270 296 358 65 54 347 323 316 307 300 304 322 42 333 292 288 293 296 299 301 303 303 304 304 304 307 308 307 305 303 300 296 293 289 286 283 281 279 277 276 275 274 272 271 269 268 266 265 264 263 263 262 261 261 260 260 261 261 261 262
166 187 200 188 169 155 15 4 350 344 45 89 82 61 40 39 39 38 33 21 24 33 60 217 225 230 236 277 302 66 94 334 303 302 300 296 301 320 36 341 307 296 294 293 296 299 301 301 301 301 302 303 304 304 303 301 298 295 292 289 285 283 280 278 276 275 274 273 272 271 270 269 267 266 266 265 264 263 263 262 261 261 261 261 261 262
149 170 195 185 169 129 71 31 28 134 142 141 135 122 89 67 51 81 86 72 65 55 197 248 245 234 213 264 280 69 101 278 293 299 298 294 292 299 45 354 314 301 296 294 292 292 292 294 294 294 295 299 301 301 301 300 298 295 292 288 285 282 279 277 275 274 272 271 270 270 269 268 268 267 266 265 264 263 263 262 262 261 261 261 262 262
128 145 174 188 191 169 88 101 144 158 158 167 170 155 127 324 344 6 145 168 190 215 229 245 249 243 229 263 276 338 102 259 276 288 295 290 288 286 97 35 301 295 295 297 296 293 289 288 286 287 290 297 300 302 302 301 298 295 292 288 284 281 278 275 274 272 271 269 268 268 267 267 266 266 265 265 264 264 264 264 264 264 264 265 265 265
117 137 161 182 193 200 128 137 150 159 167 190 211 238 213 223 262 270 218 203 214 232 244 248 247 242 240 253 253 237 190 215 231 254 274 284 289 295 101 193 287 292 296 300 302 301 295 291 287 288 292 300 303 305 307 306 303 299 294 289 285 281 277 274 272 270 268 268 267 267 267 267 267 267 268 267 268 268 268 269 269 269 270 269 269 269
122 140 157 174 189 200 186 163 164 172 179 202 214 221 208 209 213 212 197 203 209 221 233 248 249 245 237 240 235 216 173 184 200 225 255 278 289 298 67 275 296 299 301 304 307 305 301 295 291 289 293 304 310 314 316 314 311 306 301 295 290 286 281 278 278 278 276 277 277 276 277 277 277 277 277 277 277 277 277 276 276 275 275 274 273 273
135 146 156 178 191 195 194 197 190 183 184 200 205 201 189 197 199 200 200 215 222 229 244 262 266 266 264 264 254 219 153 165 190 218 251 278 288 292 264 254 294 302 304 307 307 303 298 296 296 297 302 313 320 324 327 327 325 321 318 314 312 310 308 307 307 306 304 302 300 298 295 295 292 290 289 287 285 283 283 281 279 278 277 276 275 274
159 170 176 192 207 231 296 318 329 330 310 293 271 226 174 185 199 227 247 246 246 251 263 272 276 277 278 277 274 262 167 164 186 214 241 277 291 296 296 270 284 296 303 305 304 302 300 300 301 306 316 325 327 330 333 334 334 334 334 332 332 332 331 327 326 323 319 315 312 308 303 300 296 293 291 288 286 285 283 282 281 280 279 278 277 275
227 257 278 320 337 343 344 340 335 330 326 322 320 319 312 247 244 261 264 263 264 268 274 277 279 280 279 274 271 259 188 177 186 201 218 265 287 296 309 313 295 293 301 302 303 303 302 301 304 310 324 326 324 326 331 333 335 336 336 334 333 332 330 326 322 318 314 310 307 303 300 297 294 292 290 288 287 285 284 283 282 281 281 280 278 275
353 338 340 352 1 3 359 348 335 326 321 318 317 318 319 309 282 276 273 275 276 276 274 275 278 280 282 282 281 271 247 228 194 174 192 240 275 289 303 304 282 286 298 301 301 299 295 295 300 309 317 313 310 315 324 329 331 332 331 330 328 326 324 321 318 315 311 307 304 301 298 296 294 293 291 290 289 288 287 286 285 284 283 281 279 275
18 20 30 37 37 31 22 4 338 318 308 306 306 307 310 293 268 269 272 270 268 268 267 269 272 277 283 289 290 284 271 268 195 146 174 221 266 280 289 277 266 282 304 305 303 295 276 270 276 291 295 302 308 314 320 326 328 327 326 325 324 323 322 320 318 316 312 309 305 302 299 298 297 295 294 294 292 292 290 290 289 287 285 281 278 276
14 21 32 34 30 20 5 344 320 306 301 299 298 299 300 269 246 253 258 245 245 253 260 263 266 270 278 286 288 284 273 270 135 135 174 226 268 284 288 288 288 296 316 316 312 306 289 253 222 244 274 299 309 315 319 321 321 320 319 320 320 319 319 319 318 316 315 311 308 305 303 301 299 298 297 296 295 294 293 292 291 288 284 280 277 275
343 345 343 351 350 345 335 321 310 305 302 300 299 297 294 258 237 240 238 224 230 240 249 255 259 261 266 274 278 279 275 218 148 156 188 233 276 291 298 296 298 306 322 323 319 315 312 310 275 236 262 293 303 308 311 311 310 310 309 311 311 313 315 316 316 315 314 312 309 307 304 302 301 300 299 297 296 295 293 291 289 286 281 277 275 272
256 273 288 308 315 317 314 310 305 302 299 300 298 294 283 248 221 218 220 219 224 230 237 244 249 251 251 253 258 263 274 230 165 171 192 233 276 289 291 293 298 303 295 308 308 306 305 307 303 294 291 297 300 301 300 300 299 299 298 300 301 305 310 312 313 313 311 310 307 305 303 302 300 299 298 297 295 294 292 290 287 283 277 275 273 271
261 277 289 303 306 306 300 298 296 293 290 287 284 279 278 251 215 205 207 214 220 225 227 234 238 242 243 247 252 259 273 268 199 182 188 216 263 280 282 290 298 302 299 295 288 282 281 291 298 303 303 301 300 297 294 293 291 290 291 295 297 300 306 309 310 309 307 306 304 302 301 300 299 297 296 295 294 292 291 289 286 282 276 274 272 271
288 292 296 301 303 300 295 292 289 285 282 277 277 280 280 229 211 204 196 202 210 217 222 228 233 236 242 248 255 260 265 274 278 260 200 252 277 285 290 292 295 298 299 293 288 282 277 284 291 298 301 301 298 294 292 290 289 290 291 291 293 296 299 303 304 303 302 301 300 298 297 297 295 294 294 293 292 291 289 287 285 281 277 273 270 269
280 280 283 292 296 296 295 292 289 284 276 276 291 315 338 326 218 198 196 200 202 207 213 224 232 240 250 259 266 269 269 292 339 350 343 324 308 300 296 292 293 295 295 291 290 288 285 287 291 295 299 300 298 295 291 282 281 281 280 277 278 282 288 292 294 295 296 295 294 292 292 291 291 290 290 289 288 288 287 286 284 281 278 275 272 270
268 270 272 280 287 289 291 292 291 290 286 285 301 326 338 336 318 245 212 215 219 219 219 228 237 248 261 270 275 277 281 305 328 333 324 314 304 296 289 286 287 289 288 286 286 286 287 289 291 293 294 296 297 298 297 288 274 266 269 275 278 280 281 282 283 285 288 288 288 288 288 287 286 285 284 285 286 286 286 285 284 283 281 279 277 275
248 256 258 261 268 275 277 279 278 278 279 284 296 314 328 326 313 291 256 244 243 247 252 259 262 262 263 262 264 268 276 286 293 292 289 284 279 277 274 276 277 277 275 278 281 284 286 289 291 291 289 289 292 298 305 307 301 295 293 294 292 289 284 279 277 277 280 281 283 286 287 286 284 283 283 285 286 286 286 286 285 284 283 281 279 277
239 252 255 249 246 248 255 259 256 253 256 280 301 309 313 302 287 275 256 242 236 238 243 248 257 261 262 262 260 257 261 261 260 259 256 249 247 251 260 266 268 267 265 269 275 280 282 285 287 288 287 286 288 294 301 306 307 305 304 302 296 290 283 277 272 271 272 277 281 284 285 285 285 284 285 286 287 287 285 284 283 283 282 281 279 277
236 249 255 242 230 226 234 241 245 248 258 278 292 296 294 282 268 251 232 225 224 227 232 240 251 260 260 261 260 258 256 250 245 241 241 238 237 243 252 260 264 265 264 264 266 269 273 275 278 282 287 290 292 294 297 298 300 301 303 301 295 287 280 275 270 267 268 273 277 279 281 282 284 283 282 282 281 280 279 279 279 280 280 280 279 277
235 245 251 246 234 227 230 240 250 263 280 290 292 290 284 274 260 244 235 239 239 237 231 237 249 259 261 261 261 261 260 253 244 238 234 230 232 238 245 252 258 262 263 260 257 258 261 266 270 273 278 284 290 293 294 293 295 299 303 302 298 294 294 289 280 272 268 267 270 274 278 280 279 277 275 274 272 271 273 275 276 277 277 276 277 277
240 246 252 254 248 242 243 253 265 276 281 284 284 281 275 272 275 283 289 286 281 273 259 254 255 255 252 251 254 257 258 254 248 240 229 223 224 229 237 242 249 254 257 255 253 252 253 260 265 269 272 277 281 284 285 288 291 294 297 296 296 297 299 293 286 279 272 267 266 269 274 278 278 278 277 276 274 272 272 273 274 274 272 268 268 270
254 254 255 260 261 263 264 270 270 264 254 246 245 254 266 278 284 286 286 282 278 274 269 268 268 269 272 268 260 253 251 250 244 237 230 223 220 222 228 232 238 244 250 253 253 251 252 256 261 265 269 273 278 281 283 285 287 288 288 288 293 295 294 286 279 272 271 269 265 263 268 274 278 280 282 281 279 277 274 272 271 270 269 266 263 261
257 262 267 273 279 282 284 279 268 253 236 225 226 240 259 267 267 264 261 261 261 263 264 266 273 281 288 287 280 268 253 242 237 234 231 223 219 219 224 228 231 236 241 249 253 254 253 254 257 261 265 270 274 278 282 285 285 285 283 284 289 293 293 288 285 282 278 275 273 272 273 277 280 283 283 283 281 279 275 271 268 266 264 263 262 260
269 277 283 284 282 279 273 262 250 238 233 233 239 246 249 248 250 255 261 263 263 264 266 269 274 276 276 274 274 269 257 240 235 234 235 229 223 219 223 226 229 231 234 242 250 256 259 257 257 258 262 265 268 272 276 280 282 282 280 280 280 280 279 286 291 292 288 283 280 278 277 280 283 285 285 282 279 275 273 269 266 262 260 259 258 258
280 281 281 279 273 265 257 252 249 248 249 250 250 249 249 247 247 250 255 259 262 263 266 270 271 271 269 269 271 270 263 250 240 236 238 235 232 229 227 228 228 229 231 236 242 249 257 260 262 262 262 260 262 264 269 274 277 279 279 278 277 275 273 278 283 285 285 284 282 280 279 281 284 285 284 281 278 275 273 272 270 268 264 259 257 257
247 258 266 267 268 267 266 265 264 263 263 261 256 253 254 254 252 251 253 258 262 266 267 265 265 265 268 271 274 276 278 273 265 255 246 240 236 234 233 232 232 232 232 235 239 243 248 254 260 265 267 263 261 261 262 267 272 275 277 278 277 277 276 276 276 277 278 280 280 281 282 284 284 284 283 282 280 278 275 273 271 269 267 263 260 257
225 239 251 255 258 261 265 268 268 267 264 260 257 255 254 254 252 251 250 252 257 263 265 262 260 261 264 269 274 279 283 283 281 275 268 256 249 245 243 242 240 240 241 242 243 244 246 249 253 257 262 265 266 265 263 264 265 268 272 275 276 275 275 274 274 274 274 275 276 279 283 285 283 281 280 282 282 280 278 274 271 268 267 265 263 260
230 242 252 259 263 263 263 264 263 261 257 254 252 251 250 249 251 253 255 258 264 272 275 271 268 267 267 269 271 274 277 280 282 283 282 278 271 262 254 252 250 250 249 251 251 252 251 250 248 248 251 256 262 265 266 264 263 263 266 269 271 271 272 273 273 273 272 270 270 272 275 275 276 278 282 284 284 282 280 277 274 270 267 265 264 263
229 239 249 261 265 264 261 259 257 256 255 253 250 248 246 250 259 266 272 277 278 277 273 270 269 269 269 269 269 269 272 275 278 280 281 280 279 275 268 261 259 259 259 258 257 257 256 252 246 242 240 243 249 257 263 263 263 262 263 263 264 266 268 270 271 271 271 270 266 262 259 263 268 273 279 282 282 282 282 280 277 274 270 268 265 264
221 229 238 247 253 257 259 257 257 256 256 256 254 251 245 245 250 258 268 271 269 265 261 262 264 267 269 270 270 270 270 271 272 274 275 276 278 279 277 273 271 271 271 267 264 261 259 255 246 237 231 230 234 243 254 258 260 260 259 258 257 259 263 267 269 270 271 272 270 266 262 263 265 267 270 274 278 280 282 280 278 275 272 269 266 264
228 233 236 242 249 254 258 257 257 257 256 257 257 256 253 250 248 249 253 257 258 259 259 259 261 265 268 271 273 273 272 272 272 272 274 276 278 279 279 278 278 279 280 279 277 276 273 274 265 250 233 225 224 227 238 247 254 258 258 256 254 255 258 263 267 269 271 273 274 273 269 267 265 263 262 267 272 277 280 279 278 276 274 272 270 268